Location: Czernica
(51.0462°N, 17.2458°E)
Time: 19:26:54
(UTC+01:00)

ISS - Visible Passes

Search period start: 22 February 2018 00:00
Search period end: 04 March 2018 00:00
Orbit: 402 x 407 km, 51.6° (Epoch: 23 February)

Date Brightness Start Highest point End Pass type
(mag) Time Alt. Az. Time Alt. Az. Time Alt. Az.
27 Feb -0.8 05:34:40 10° SSE 05:36:09 13° SE 05:37:38 10° ESE visible
01 Mar -1.6 05:25:03 10° SSW 05:27:41 23° SE 05:30:21 10° E visible
02 Mar -1.2 04:34:05 12° S 04:35:36 15° SE 04:37:32 10° ESE visible
03 Mar -2.7 05:16:44 13° SW 05:19:19 39° SSE 05:22:23 10° E visible
